Temperature
20 21 22 23 23 21 22 20 21 21 21 22 21 21 22 23 23 23 23 24 24 24 24 23 23 23 22 22 21 21 20 20 20 19 19 18 18 17 17 17 17 16 16 16
21 22 22 23 23 22 22 21 21 22 21 21 21 22 22 22 22 22 23 24 24 24 24 23 23 23 23 22 21 21 20 20 20 19 19 18 18 17 17 17 17 16 16 16
19 21 22 22 22 22 22 21 21 22 22 20 20 20 21 22 22 23 24 24 24 24 24 24 23 23 22 22 21 21 20 20 20 19 19 18 18 17 17 17 16 16 16 15
17 20 21 21 21 22 22 21 20 20 20 19 20 22 22 23 24 24 24 24 24 24 24 23 23 23 22 22 21 21 20 20 19 19 19 18 18 17 17 16 16 16 15 15
16 18 20 21 21 21 21 21 20 20 20 20 21 21 22 23 24 24 24 25 24 24 24 23 23 22 22 21 21 20 20 20 19 19 18 18 18 17 17 16 16 15 15 15
16 19 19 20 21 22 21 21 20 20 19 19 20 20 21 23 23 24 24 24 24 23 23 23 22 22 21 21 20 20 20 19 19 18 18 17 17 17 16 16 15 15 15 14
16 18 18 19 20 21 21 20 21 20 20 20 19 21 22 23 23 23 23 23 23 23 22 22 22 21 21 20 20 19 19 18 18 17 17 17 16 16 16 15 15 15 14 14
15 17 18 19 19 19 19 20 20 20 21 21 21 22 22 22 23 23 23 23 22 22 22 21 21 20 20 20 19 19 18 18 17 17 17 16 16 15 15 15 15 14 14 14
14 16 17 17 18 19 19 19 20 20 21 21 21 21 21 22 22 22 22 22 22 21 21 20 20 20 19 19 19 18 18 17 17 16 16 16 15 15 15 14 14 14 14 13
14 15 16 17 18 19 20 20 21 21 21 21 21 21 21 21 21 21 21 21 21 20 20 20 19 19 18 18 18 18 17 17 16 16 16 15 15 14 14 14 14 14 13 13
13 14 15 17 18 19 19 20 20 21 21 21 21 21 20 20 20 20 20 20 20 20 19 19 18 18 18 18 17 17 17 16 16 15 15 15 15 14 14 14 13 13 13 13
14 15 14 16 18 18 19 19 19 19 19 20 20 20 20 20 20 19 19 19 19 19 19 18 18 18 17 17 17 16 16 16 15 15 15 14 14 14 13 13 13 13 12 12
16 16 16 17 17 18 18 18 19 19 19 19 19 19 19 19 19 19 19 18 18 18 18 18 17 17 17 17 16 16 16 16 15 15 14 14 14 13 13 13 12 12 12 12
16 16 16 17 17 17 17 17 18 18 18 18 18 18 18 18 18 18 18 18 18 17 17 17 17 16 16 16 16 15 15 15 15 14 14 14 13 13 13 13 12 12 12 12
16 16 16 16 16 16 17 17 17 17 18 18 18 17 17 17 17 17 17 17 17 16 16 16 16 16 16 15 15 15 15 14 14 14 13 13 13 12 12 12 12 12 12 12
15 15 15 16 16 16 16 17 17 17 17 17 17 17 17 16 16 16 16 16 16 16 16 16 15 15 15 15 15 14 14 14 14 13 13 13 12 12 12 12 11 11 11 11
14 14 15 15 15 16 16 16 16 16 16 16 16 16 16 16 16 16 16 15 15 15 15 15 15 14 14 14 14 14 14 13 13 13 13 12 12 12 12 11 11 11 11 11
14 15 15 15 15 15 15 16 16 16 16 16 16 16 15 15 15 15 15 15 15 14 14 14 14 14 14 14 14 13 13 13 13 13 12 12 12 11 11 11 11 11 11 11
14 14 15 15 15 15 15 15 15 15 15 15 15 15 15 15 15 14 14 14 14 14 14 13 13 13 13 13 13 13 13 13 12 12 12 12 11 11 11 11 11 10 10 10
14 14 15 15 15 15 15 15 15 15 15 15 15 14 14 14 14 14 13 14 14 13 13 13 13 13 13 13 13 13 12 12 12 12 12 11 11 11 11 11 10 10 10 10
14 14 14 14 14 14 15 15 14 14 14 14 14 14 14 14 13 13 13 13 13 13 13 13 13 13 13 12 12 12 12 12 12 11 11 11 11 11 10 10 10 10 10 10
13 13 13 14 14 14 14 14 14 14 14 14 14 13 13 13 13 13 13 13 12 12 12 12 12 12 12 12 12 12 12 11 11 11 11 11 10 10 10 10 10 10 10 10
13 13 13 13 13 13 13 13 13 13 13 13 13 13 13 13 12 12 12 12 12 12 12 12 12 12 12 11 11 11 11 11 11 11 10 10 10 10 10 10 10 10 9 9
13 13 13 13 13 13 13 13 13 13 13 13 13 13 12 12 12 12 12 12 12 12 12 12 11 11 11 11 11 11 11 11 11 11 10 10 10 10 10 10 10 10 9 9
12 12 12 12 12 12 12 12 12 12 12 12 12 12 12 12 12 12 12 12 11 11 11 11 11 11 11 11 11 11 11 11 11 11 10 10 10 10 10 10 10 9 9 9
12 12 12 12 12 12 12 12 12 12 12 12 12 12 12 11 11 11 11 11 11 11 11 11 10 11 11 11 10 10 10 10 10 10 10 10 10 10 10 10 9 9 9 9
11 11 11 11 11 11 11 11 11 11 11 11 11 11 11 11 11 11 11 11 11 10 10 10 10 10 10 10 10 10 10 10 10 10 10 10 10 9 9 9 9 9 9 9
Wind_Speed
5 4 4 4 4 6 6 8 9 9 9 11 9 8 8 7 6 7 7 7 8 9 8 7 7 7 7 6 6 6 6 6 5 4 4 4 3 3 3 3 3 3 3 3
1 1 3 2 4 7 5 5 5 4 8 8 5 2 4 5 7 9 9 9 8 8 8 8 8 8 7 6 6 6 6 5 4 4 4 4 4 3 3 3 3 3 3 3
3 2 2 4 5 6 4 4 6 7 8 3 2 4 7 8 8 9 10 10 10 9 9 8 8 8 8 7 6 7 6 5 5 5 5 5 5 4 3 3 3 3 3 3
2 2 5 8 3 4 5 4 4 5 5 5 6 6 4 5 8 9 8 9 9 9 8 6 6 7 8 8 7 7 6 5 5 5 5 5 5 4 3 3 3 2 2 3
4 4 5 6 3 4 5 4 3 4 3 1 1 2 2 3 5 7 8 8 8 8 8 8 8 9 9 8 7 7 6 6 5 5 5 4 5 4 3 3 3 2 3 3
4 4 7 7 4 2 4 4 4 3 3 2 5 2 5 3 3 4 4 5 7 8 8 8 9 10 10 8 7 7 6 5 5 5 5 5 4 4 3 3 3 3 3 3
4 4 7 6 6 1 5 7 4 3 4 5 5 6 4 2 3 4 5 6 8 9 8 8 9 10 9 8 7 5 5 5 5 5 5 4 4 4 4 4 4 4 3 3
4 4 7 4 1 3 5 4 2 3 4 5 3 2 2 3 4 5 6 7 8 8 7 6 8 9 8 7 6 6 7 6 5 5 4 4 5 4 4 5 5 3 2 2
6 6 5 3 3 4 3 3 3 2 2 3 3 2 2 3 4 5 6 7 7 8 7 6 6 8 8 7 7 7 7 6 5 5 4 4 5 6 4 4 4 3 2 2
2 5 5 5 4 3 3 3 3 2 2 3 3 4 4 4 4 5 5 6 7 8 8 6 5 5 6 7 7 8 7 5 5 5 4 4 3 3 4 3 4 3 3 2
2 5 5 5 4 4 4 2 2 2 0 2 4 4 5 5 5 5 5 5 7 8 8 6 5 5 5 6 7 8 7 5 5 4 4 3 3 2 2 2 4 4 4 4
5 5 3 6 6 5 3 2 0 1 1 2 3 4 5 5 4 5 5 5 5 6 6 6 6 5 5 6 7 7 6 5 4 4 3 3 3 2 2 1 2 3 3 3
5 4 5 6 5 3 3 2 1 1 3 3 3 4 6 5 4 5 4 4 4 4 4 5 5 5 5 6 6 7 6 5 4 4 4 4 4 4 2 1 2 2 2 3
4 2 4 3 2 2 2 2 2 4 4 5 5 5 6 6 5 5 4 3 3 4 3 4 4 4 5 6 5 5 5 5 5 4 4 4 4 4 3 3 2 1 1 2
5 2 3 3 2 2 2 3 4 4 4 5 5 6 6 6 5 4 4 4 5 5 4 4 3 3 4 5 5 5 4 4 4 4 4 4 4 4 3 3 3 2 0 1
4 2 1 1 2 2 2 3 3 2 3 4 4 5 5 5 5 5 4 4 4 3 2 3 3 2 3 5 4 3 3 5 5 4 4 4 4 4 4 4 3 3 3 3
1 2 1 1 1 1 0 1 2 2 3 3 3 4 5 5 4 3 3 3 3 2 1 2 3 2 3 4 4 3 3 4 6 5 4 5 5 5 5 4 4 4 4 4
6 6 6 5 3 2 1 1 2 2 2 3 4 4 4 3 3 2 2 2 3 3 1 1 2 3 3 4 3 3 3 4 4 4 4 4 4 5 4 4 5 4 3 2
5 5 4 3 3 3 2 1 1 2 2 3 3 3 2 2 2 2 2 3 3 1 1 2 3 3 3 3 3 3 3 4 4 3 3 4 4 4 4 4 4 4 3 3
3 2 2 2 1 2 2 2 2 1 2 3 3 3 2 2 2 2 2 1 2 2 3 3 3 3 3 3 4 3 3 4 4 4 3 4 4 4 4 4 4 4 4 4
1 1 1 1 1 2 2 2 2 2 2 3 3 3 2 1 2 2 2 1 2 1 2 3 3 2 3 4 5 3 3 3 3 3 4 4 3 3 3 4 4 4 4 4
0 1 1 2 2 1 1 1 2 2 3 2 2 3 3 2 1 1 2 3 2 3 2 2 2 3 4 5 3 3 4 4 3 3 3 3 4 4 4 4 4 4 4 4
0 1 1 1 2 1 2 2 0 1 2 2 3 3 3 2 2 3 2 2 2 3 2 2 3 5 5 3 3 3 3 4 4 4 4 4 4 4 4 4 4 4 4 4
1 1 1 1 2 2 1 1 1 1 1 1 2 3 3 2 2 2 2 3 3 3 2 2 4 4 4 3 3 3 3 3 3 3 4 4 4 4 4 4 4 4 4 5
1 1 1 1 1 0 1 0 1 1 1 1 1 0 1 2 2 2 1 2 3 2 1 2 4 4 3 2 3 3 3 3 3 3 3 3 3 3 3 3 4 4 4 4
0 0 0 0 1 1 0 1 1 0 0 1 1 1 1 0 1 1 1 1 2 2 1 1 2 2 2 2 2 2 2 2 2 3 3 3 3 3 3 3 4 3 3 3
2 1 1 1 1 0 0 1 1 1 1 1 0 1 0 0 0 1 1 1 1 1 1 1 1 1 2 2 2 2 2 2 2 3 3 3 2 3 3 3 3 3 2 2
Wind_Direction
221 222 184 188 186 175 176 179 182 220 226 247 239 222 214 200 183 169 168 173 176 177 176 170 163 162 166 167 161 159 156 160 164 155 143 131 122 117 110 105 107 107 106 99
268 232 195 216 211 190 199 183 202 218 249 255 256 202 191 188 178 180 183 187 184 176 172 173 170 169 166 166 158 149 151 156 145 138 137 133 129 117 105 97 94 89 91 96
234 286 94 249 226 190 187 191 175 206 239 261 237 217 202 194 189 192 191 187 184 182 181 180 176 169 164 156 145 144 148 147 146 144 144 142 140 128 125 121 109 98 96 96
149 99 208 239 233 180 177 209 212 231 250 221 219 224 218 199 192 194 188 183 183 179 178 176 162 150 142 140 142 143 141 141 147 147 148 145 140 146 151 143 136 129 114 105
133 177 255 288 248 180 178 242 235 231 259 266 116 55 325 239 198 195 188 182 176 168 164 157 151 146 140 141 144 146 149 153 157 147 147 152 153 154 153 144 135 129 119 113
138 165 220 243 270 239 145 243 256 211 214 158 109 142 257 247 187 176 161 151 147 143 140 148 149 142 141 149 155 162 165 161 150 141 155 165 165 156 142 136 138 128 115 111
164 200 251 263 294 89 163 233 267 221 203 171 182 214 233 192 170 159 139 137 138 138 145 153 147 145 150 154 167 163 147 140 138 144 151 153 148 143 138 129 119 115 113 96
158 185 240 298 37 169 221 275 274 227 203 189 205 217 135 134 135 133 132 134 135 134 134 140 146 149 152 164 161 140 138 139 142 144 141 143 141 138 134 129 122 114 114 107
192 213 250 285 240 259 240 254 259 234 246 184 175 188 156 145 137 135 136 140 136 133 132 135 144 151 159 162 147 141 139 143 139 134 130 138 146 146 141 139 141 147 155 161
263 272 285 293 290 293 273 259 263 245 223 184 181 175 159 143 136 135 135 140 135 130 133 137 138 143 148 144 140 139 144 149 146 143 136 130 133 147 154 162 165 168 177 189
267 281 309 307 304 298 307 323 8 20 263 189 161 154 150 139 135 137 134 136 139 143 147 147 143 139 136 141 143 145 149 153 150 149 148 143 141 150 175 196 196 189 195 189
230 241 236 270 292 300 310 320 359 91 56 80 124 134 123 119 122 128 131 137 140 145 146 145 141 139 136 145 153 152 155 159 161 161 157 154 150 123 73 124 141 171 184 184
240 254 247 268 287 305 311 300 306 102 120 103 90 109 110 107 104 104 110 125 139 144 144 140 139 142 147 151 156 159 163 164 164 165 165 168 167 167 166 79 82 120 169 190
260 270 297 292 292 329 356 22 50 68 78 89 97 99 99 100 100 97 100 113 123 124 128 135 138 149 152 149 152 158 159 166 171 173 175 174 175 178 177 174 184 245 254 215
308 286 257 277 339 3 29 71 83 79 84 86 98 102 104 106 104 99 92 93 102 110 124 135 141 156 150 147 152 162 169 176 173 167 168 168 169 170 172 177 187 199 225 250
322 352 16 37 26 5 46 87 98 98 102 103 104 101 106 110 112 109 101 102 107 118 148 154 159 165 147 145 151 165 177 173 167 165 166 167 170 176 183 189 191 198 216 223
248 283 262 262 288 298 277 137 131 128 115 110 113 113 113 111 104 98 94 96 110 123 149 174 171 156 149 152 159 170 169 166 164 165 176 180 183 189 193 196 202 212 225 218
228 229 224 212 211 222 248 92 112 100 101 108 107 113 119 127 141 141 125 107 94 71 36 228 162 140 143 150 153 159 159 159 169 178 181 184 186 191 193 198 207 216 233 224
256 237 234 228 214 192 182 168 134 113 120 128 126 132 139 143 142 127 112 116 125 141 251 230 164 141 146 158 152 154 160 164 169 174 178 177 182 190 195 199 206 214 217 213
272 238 210 186 154 145 139 131 121 115 124 134 133 133 137 150 146 136 126 154 210 218 207 184 167 163 167 166 157 158 165 172 172 171 173 179 187 194 202 206 208 211 215 218
260 189 138 116 93 87 106 131 147 152 153 145 150 160 163 163 149 156 163 227 273 219 170 165 166 171 174 165 158 162 168 171 175 178 179 184 190 199 207 209 211 210 212 220
14 103 110 101 91 62 42 71 146 155 144 139 148 152 149 156 167 186 216 217 223 180 166 175 179 172 168 160 162 165 171 175 180 182 184 191 197 204 210 214 218 221 221 224
39 98 115 104 107 70 24 24 64 168 164 166 168 175 184 193 193 194 225 230 190 175 175 188 174 164 161 157 160 167 176 185 188 193 201 207 210 215 217 220 224 227 227 227
17 53 64 75 82 80 44 319 300 252 187 185 197 191 186 185 214 231 213 180 172 171 187 183 167 169 165 167 170 178 188 193 194 198 206 211 213 217 221 226 232 232 231 233
5 49 56 77 89 132 222 294 52 60 75 47 342 275 217 196 198 202 178 164 162 155 166 175 168 164 168 174 181 189 195 200 198 195 200 209 217 222 225 228 235 239 229 227
17 86 116 243 226 226 167 99 79 332 105 87 344 335 11 44 124 133 130 147 143 143 157 178 178 175 183 183 189 194 197 201 206 209 212 212 217 220 224 229 233 230 227 224
61 54 39 14 355 4 88 114 157 249 228 182 258 296 314 77 111 125 130 136 144 164 187 176 168 180 186 186 190 193 195 208 216 215 215 213 214 219 223 227 232 228 222 221
Height
1511 1507 1506 1507 1509 1513 1515 1521 1528 1522 1519 1507 1501 1500 1499 1501 1504 1507 1510 1513 1516 1518 1521 1524 1527 1530 1533 1535 1537 1539 1540 1542 1542 1543 1544 1544 1545 1545 1546 1545 1545 1545 1545 1545
1510 1506 1506 1508 1506 1508 1509 1512 1514 1513 1512 1498 1497 1498 1499 1500 1501 1504 1507 1510 1513 1516 1519 1522 1525 1528 1531 1534 1536 1538 1539 1541 1542 1542 1542 1543 1544 1544 1544 1544 1544 1544 1544 1544
1520 1510 1507 1515 1506 1505 1506 1505 1507 1510 1504 1497 1497 1496 1496 1497 1498 1500 1503 1506 1510 1513 1516 1520 1523 1526 1529 1532 1534 1536 1538 1539 1540 1540 1540 1541 1542 1543 1543 1543 1543 1543 1543 1543
1523 1517 1526 1509 1496 1496 1499 1500 1499 1498 1496 1494 1493 1493 1493 1494 1495 1498 1501 1504 1507 1511 1515 1518 1521 1524 1527 1530 1532 1534 1536 1537 1538 1539 1539 1539 1540 1541 1541 1542 1542 1542 1542 1542
1527 1526 1518 1503 1495 1495 1499 1500 1494 1494 1492 1492 1492 1492 1493 1493 1494 1496 1498 1501 1505 1508 1512 1516 1519 1522 1525 1528 1530 1531 1533 1535 1536 1536 1538 1538 1539 1539 1540 1540 1540 1540 1540 1541
1524 1523 1524 1505 1491 1489 1493 1500 1490 1490 1490 1491 1492 1498 1493 1490 1492 1494 1497 1500 1503 1507 1510 1513 1516 1520 1523 1525 1527 1529 1531 1532 1534 1535 1536 1537 1537 1538 1538 1538 1539 1539 1539 1539
1520 1519 1512 1496 1490 1490 1504 1500 1488 1488 1488 1489 1490 1490 1489 1489 1490 1492 1496 1499 1502 1505 1508 1511 1514 1518 1520 1523 1525 1528 1529 1531 1532 1533 1534 1534 1534 1536 1537 1537 1537 1537 1537 1538
1518 1518 1512 1491 1490 1494 1493 1487 1486 1485 1486 1486 1487 1487 1487 1488 1489 1491 1494 1497 1500 1503 1506 1509 1513 1515 1517 1520 1523 1525 1527 1528 1530 1532 1532 1533 1533 1534 1535 1535 1536 1536 1536 1536
1508 1506 1494 1491 1490 1489 1487 1486 1485 1484 1485 1485 1485 1486 1487 1488 1489 1491 1493 1496 1498 1501 1505 1508 1510 1513 1516 1518 1521 1523 1525 1526 1528 1530 1531 1532 1532 1533 1534 1534 1534 1534 1535 1535
1502 1496 1491 1489 1488 1486 1485 1484 1483 1482 1483 1484 1484 1485 1486 1487 1489 1491 1493 1496 1497 1500 1503 1506 1509 1512 1515 1517 1519 1521 1523 1525 1526 1527 1528 1529 1530 1531 1532 1532 1532 1533 1533 1534
1500 1494 1490 1487 1486 1485 1483 1482 1481 1480 1481 1482 1482 1484 1485 1487 1489 1491 1493 1495 1497 1499 1501 1504 1508 1510 1513 1515 1517 1518 1520 1523 1524 1525 1526 1527 1528 1529 1530 1530 1531 1532 1532 1533
1497 1491 1491 1487 1486 1484 1482 1481 1480 1479 1480 1482 1483 1484 1485 1487 1489 1491 1493 1495 1497 1499 1501 1502 1505 1509 1510 1513 1516 1517 1518 1520 1521 1523 1524 1525 1526 1526 1527 1529 1529 1530 1531 1531
1491 1489 1488 1486 1485 1484 1483 1481 1481 1480 1481 1481 1483 1484 1485 1487 1489 1491 1493 1495 1497 1498 1500 1501 1503 1506 1508 1511 1514 1515 1516 1517 1519 1521 1522 1522 1523 1524 1525 1527 1527 1528 1529 1529
1489 1488 1485 1484 1484 1484 1483 1482 1482 1482 1482 1482 1483 1484 1485 1487 1490 1491 1493 1494 1497 1499 1500 1501 1503 1505 1507 1509 1511 1513 1514 1515 1517 1518 1519 1520 1521 1522 1523 1524 1525 1525 1526 1527
1487 1486 1485 1483 1483 1483 1483 1483 1483 1483 1483 1483 1484 1485 1486 1488 1490 1492 1494 1495 1496 1498 1500 1501 1502 1504 1505 1506 1508 1511 1512 1513 1514 1515 1517 1517 1518 1519 1520 1521 1522 1523 1524 1524
1486 1485 1484 1483 1483 1483 1483 1483 1483 1484 1484 1484 1485 1485 1487 1490 1491 1492 1493 1495 1496 1497 1499 1500 1501 1502 1503 1504 1507 1509 1510 1511 1512 1513 1514 1514 1515 1516 1517 1518 1519 1520 1520 1521
1485 1484 1483 1483 1483 1483 1483 1483 1484 1484 1484 1485 1486 1487 1489 1490 1491 1491 1492 1494 1496 1497 1499 1499 1499 1500 1501 1502 1504 1506 1507 1508 1509 1510 1511 1511 1512 1513 1514 1515 1516 1517 1517 1518
1483 1483 1482 1482 1482 1483 1483 1483 1484 1484 1484 1485 1487 1488 1489 1489 1490 1491 1492 1493 1495 1496 1497 1498 1498 1498 1499 1501 1502 1503 1504 1505 1506 1507 1508 1508 1509 1511 1512 1512 1513 1514 1514 1515
1480 1481 1481 1481 1482 1482 1482 1482 1483 1484 1485 1486 1487 1488 1489 1489 1490 1491 1492 1492 1493 1494 1496 1497 1498 1498 1498 1499 1501 1501 1502 1502 1503 1504 1505 1506 1507 1508 1508 1509 1510 1510 1511 1511
1478 1479 1479 1479 1480 1481 1481 1482 1483 1484 1485 1486 1486 1487 1488 1489 1490 1490 1491 1492 1492 1492 1493 1494 1495 1496 1497 1497 1498 1498 1499 1500 1501 1502 1502 1503 1504 1504 1505 1506 1506 1507 1507 1508
1477 1477 1478 1478 1479 1479 1480 1481 1483 1483 1484 1485 1486 1486 1486 1488 1488 1489 1490 1490 1491 1491 1492 1492 1493 1494 1494 1495 1496 1496 1497 1498 1499 1499 1500 1500 1501 1502 1502 1503 1503 1503 1504 1505
1476 1476 1477 1477 1478 1478 1479 1480 1482 1482 1483 1483 1484 1484 1485 1486 1487 1488 1488 1488 1489 1489 1490 1491 1491 1492 1493 1493 1494 1494 1495 1496 1496 1497 1497 1498 1499 1500 1500 1500 1500 1501 1501 1502
1476 1476 1476 1477 1478 1478 1479 1480 1481 1481 1482 1482 1482 1483 1483 1484 1485 1485 1485 1486 1487 1487 1488 1489 1490 1491 1491 1491 1492 1493 1493 1494 1494 1495 1495 1496 1497 1497 1497 1497 1497 1498 1498 1499
1476 1476 1476 1476 1477 1478 1479 1479 1480 1480 1480 1481 1481 1481 1482 1482 1482 1483 1484 1484 1484 1485 1486 1486 1487 1488 1489 1489 1490 1491 1491 1492 1492 1493 1493 1494 1494 1494 1494 1494 1494 1495 1495 1495
1475 1475 1476 1476 1477 1477 1478 1478 1478 1478 1478 1479 1479 1479 1480 1481 1481 1481 1482 1482 1482 1483 1484 1485 1485 1486 1487 1487 1488 1489 1490 1490 1491 1491 1491 1492 1492 1492 1492 1492 1492 1492 1492 1492
1475 1475 1475 1476 1476 1476 1476 1475 1476 1476 1477 1477 1477 1477 1478 1479 1479 1480 1480 1480 1481 1481 1482 1483 1484 1484 1485 1486 1486 1487 1488 1488 1489 1489 1489 1490 1490 1490 1490 1490 1489 1489 1489 1490
1474 1475 1475 1475 1475 1475 1475 1475 1475 1475 1475 1475 1475 1476 1477 1478 1478 1478 1479 1479 1479 1480 1481 1481 1481 1482 1483 1484 1484 1485 1485 1486 1486 1487 1487 1487 1487 1488 1488 1488 1488 1488 1488 1488